TimeEDT,TemperatureF,Dew PointF,Humidity,Sea Level PressureIn,VisibilityMPH,Wind Direction,Wind SpeedMPH,Gust SpeedMPH,PrecipitationIn,Events,Conditions,WindDirDegrees,DateUTC
12:54 AM,64.0,57.9,80,30.13,10.0,Calm,Calm,-,N/A,,Mostly Cloudy,0,2013-08-11 04:54:00
1:54 AM,61.0,57.9,90,30.13,10.0,SE,3.5,-,N/A,,Clear,140,2013-08-11 05:54:00
2:54 AM,60.1,57.9,93,30.12,7.0,Calm,Calm,-,N/A,,Clear,0,2013-08-11 06:54:00
3:54 AM,62.1,59.0,90,30.12,9.0,WSW,3.5,-,N/A,,Mostly Cloudy,240,2013-08-11 07:54:00
4:54 AM,61.0,59.0,93,30.12,8.0,SW,3.5,-,N/A,,Mostly Cloudy,220,2013-08-11 08:54:00
5:54 AM,61.0,59.0,93,30.13,6.0,South,4.6,-,N/A,,Overcast,170,2013-08-11 09:54:00
6:54 AM,61.0,59.0,93,30.14,6.0,Calm,Calm,-,N/A,,Scattered Clouds,0,2013-08-11 10:54:00
7:54 AM,64.0,59.0,84,30.14,10.0,South,4.6,-,N/A,,Clear,190,2013-08-11 11:54:00
8:54 AM,66.0,61.0,84,30.14,10.0,WSW,3.5,-,N/A,,Partly Cloudy,250,2013-08-11 12:54:00
9:54 AM,69.1,61.0,75,30.14,10.0,South,4.6,-,N/A,,Mostly Cloudy,190,2013-08-11 13:54:00
10:37 AM,71.6,62.6,73,30.18,10.0,West,4.6,-,N/A,,Overcast,270,2013-08-11 14:37:00
10:54 AM,71.1,61.0,70,30.15,10.0,SW,5.8,-,N/A,,Mostly Cloudy,230,2013-08-11 14:54:00
11:19 AM,71.6,60.8,69,30.17,10.0,SW,6.9,-,N/A,,Scattered Clouds,230,2013-08-11 15:19:00
11:54 AM,72.0,61.0,68,30.13,10.0,WNW,5.8,-,N/A,,Scattered Clouds,290,2013-08-11 15:54:00
12:54 PM,72.0,60.1,66,30.12,10.0,NW,3.5,-,N/A,,Mostly Cloudy,310,2013-08-11 16:54:00
1:54 PM,75.0,60.1,60,30.11,10.0,West,5.8,-,N/A,,Mostly Cloudy,260,2013-08-11 17:54:00
2:54 PM,77.0,63.0,62,30.10,10.0,West,9.2,-,N/A,,Scattered Clouds,280,2013-08-11 18:54:00
3:54 PM,77.0,62.1,60,30.08,10.0,NW,6.9,-,N/A,,Scattered Clouds,310,2013-08-11 19:54:00
4:54 PM,75.9,61.0,60,30.07,10.0,WNW,9.2,-,N/A,,Partly Cloudy,290,2013-08-11 20:54:00
5:54 PM,75.9,62.1,62,30.07,10.0,NW,8.1,-,N/A,,Clear,310,2013-08-11 21:54:00
6:54 PM,73.9,61.0,64,30.06,10.0,NW,4.6,-,N/A,,Mostly Cloudy,320,2013-08-11 22:54:00
7:54 PM,72.0,61.0,68,30.06,10.0,NNW,5.8,-,N/A,,Overcast,340,2013-08-11 23:54:00
8:54 PM,69.1,62.1,78,30.07,10.0,North,6.9,-,0.00,Rain,Light Rain,10,2013-08-12 00:54:00
9:54 PM,66.9,63.0,87,30.09,6.0,NNW,4.6,-,0.02,Rain,Light Rain,340,2013-08-12 01:54:00
10:54 PM,66.9,62.1,84,30.08,10.0,ENE,4.6,-,0.00,,Overcast,60,2013-08-12 02:54:00
11:54 PM,66.0,63.0,90,30.08,8.0,SW,8.1,-,N/A,,Overcast,230,2013-08-12 03:54:00
11:58 PM,66.2,64.4,94,30.12,2.5,SW,8.1,-,N/A,,Overcast,230,2013-08-12 03:58:00